Showing default

PRAETORIAN SDA_608, 65571

Orbit data source: Space-Track

PRAETORIAN SDA_608, 65571 is a payload satellite owned by SDA (US) in LEO that was launched on Wed, 10 Sep 2025 UTC via an FALCON 9 launch vehicle from the Air Force Western Test Range (AFWTR). Payload-class satellites include a variety of spacecraft equipped with specific instruments for various scientific and technological missions. These include communications satellites like Starlink; space stations such as the ISS; scientific satellites like the Hubble; Earth observation satellites from companies like Planet Labs, Umbra, and HawkEye 360; GPS; miniature CubeSats for education and research; and military/defense satellites.

Loading next visibility...
Identifier
65571, 2025-203G
Orbit
LEO
Country
Flag of USUS
Related business
Manufacturer
York Space Sys
Mission
Operational Defense Communications
Bus & Motor
S-CLASS, Unknown motor
Mass
~300 kg wet, ~300 kg dry
Launch date (UTC)
2025-09-10 (9 months ago)
Launch vehicle
FALCON 9
Launch site
Air Force Western Test Range (AFWTR)
Object type
Payload
Rocket body
Debris
Shape & HBR
Box + 4 Pan, 14.5 m
Radar Cross Section
1.244 m², Large (>1 m²)

Expand to show TLE details & history
Last TLE update: 9 hours ago

TLE from 9 hours ago
0 PRAETORIAN SDA_608
1 65571U 25203G   26171.47425272  .00000051  00000-0  35115-4 0  9991
2 65571  81.3006   7.7639 0005940 181.5836 178.5303 13.83817196 39147
Epoch: 2026-06-20T11:22Z
TLE epoch observation values (Epoch: 2026-06-20T11:22:55.435Z)
Latitude
-0.00002°
Longitude
-71.65544°
Altitude
957.596 km
Speed
7.371 km/s
True Right ascension
00h 31m 03s
True Declination
0° 00' 00"
Sunlit
Object was in daylight at epoch
Visualization orbit readout
Latitude
Unknown
Longitude
Unknown
Altitude
Unknown
Speed
Unknown
Apparent Right ascension
Unknown
Apparent Declination
Unknown
Sunlit
N/A
Visualization observer readout
Local Sidereal Time
07:12:20
Azimuth
Unknown
Elevation
Unknown
Doppler factor
Unknown
Orbital elements
Apogee altitude
951.937 km
Perigee altitude
943.234 km
Semi-major axis
7,325.722 km
Eccentricity
0.00059
Inclination
81.3006°
RAAN
7.7639°
Arg. of periapsis
181.5836°
True anomaly
178.53204°
Mean anomaly
178.5303°
Eccentric anomaly
178.53117°
Mean motion
3.46153 °/min
Orbital period
104 mins
BSTAR
0.000035115
Loading maneuver chart data...
Computing Atmospheric mass density...
Loading historical data...
Loading historical data...
Loading historical data...
Loading historical data...
Loading historical data...
Loading historical data...
Loading historical data...

Documentation

Showing up to 5 results
|